Gonzales, LA

12:17 AM CDT on May 22, 2018 (GMT -0500)
Gonzales

Weather History for KL38 - January, 2013

Change the Weather History Date:

Saturday, January 5, 2013

  Actual Average (WUND) Record (WUND)
Temperature  
Mean Temperature 48 °F -  
Max Temperature 52 °F - - (-1)
Min Temperature 43 °F - - (-1)
Degree Days  
Heating Degree Days 18    
Moisture  
Dew Point 36 °F    
Average Humidity 63    
Maximum Humidity 87    
Minimum Humidity 47    
Precipitation  
Precipitation 0.00 in - - ()
Sea Level Pressure  
Sea Level Pressure 30.29 in    
Wind  
Wind Speed 4 mph (NNE)    
Max Wind Speed 6 mph    
Max Gust Speed -    
Visibility 10 miles    
Events Rain    
Averages and records for this station are not official NWS values.
T = Trace of Precipitation, MM = Missing Value Source: NWS Daily Summary

Daily Weather History Graph

Daily Weather History Graph

Search for Another Location

Airport or City:

Astronomy

Jan. 05, 2013 Rise Set
Actual Time 7:00 AM CST 5:18 PM CST
Civil Twilight 6:34 AM CST 5:44 PM CST
Nautical Twilight 6:04 AM CST 6:13 PM CST
Astronomical Twilight 5:35 AM CST 6:43 PM CST
Moon 12:22 AM CST (1/5) 11:55 AM CST (1/5)
Length of Visible Light 11h 09m
Length of Day
10h 17m
Last Quarter, 44% of the Moon is Illuminated
Jan 5
Last Quarter
Jan 11
New
Jan 18
First Quarter
Jan 26
Full
Feb 3
Last Quarter

Hourly Weather History & Observations

Time (CST) Temp. Windchill Dew Point Humidity Pressure Visibility Wind Dir Wind Speed Gust Speed Precip Events Conditions
12:15 AM 48.6 °F - 32.9 °F 55% 30.34 in 10.0 mi NE 4.6 mph - N/A   Clear
12:35 AM 48.0 °F - 32.9 °F 56% 30.32 in 10.0 mi NE 4.6 mph - N/A   Clear
1:15 AM 47.3 °F - 32.9 °F 57% 30.32 in 10.0 mi ENE 4.6 mph - N/A   Mostly Cloudy
1:35 AM 46.6 °F - 32.9 °F 59% 30.32 in 10.0 mi NNE 3.5 mph - N/A   Scattered Clouds
1:55 AM 46.2 °F 45.0 °F 32.7 °F 59% 30.31 in 10.0 mi NNE 3.5 mph - N/A   Scattered Clouds
2:15 AM 45.7 °F 43.4 °F 32.9 °F 61% 30.31 in 10.0 mi NE 4.6 mph - N/A   Scattered Clouds
2:35 AM 45.5 °F - 32.9 °F 61% 30.31 in 10.0 mi Calm Calm - N/A   Scattered Clouds
2:55 AM 45.1 °F - 32.9 °F 62% 30.30 in 10.0 mi Calm Calm - N/A   Mostly Cloudy
3:15 AM 45.0 °F - 32.9 °F 63% 30.30 in 10.0 mi Calm Calm - N/A   Scattered Clouds
3:35 AM 45.0 °F - 32.9 °F 63% 30.29 in 10.0 mi Calm Calm - N/A   Clear
3:55 AM 43.7 °F 41.1 °F 33.8 °F 68% 30.32 in 10.0 mi NW 4.6 mph - N/A   Clear
4:15 AM 44.1 °F 41.5 °F 33.4 °F 66% 30.34 in 10.0 mi WNW 4.6 mph - N/A   Clear
4:35 AM 44.1 °F 41.5 °F 33.4 °F 66% 30.34 in 10.0 mi NNW 4.6 mph - N/A   Clear
4:55 AM 43.7 °F 41.1 °F 34.0 °F 69% 30.33 in 10.0 mi North 4.6 mph - N/A   Clear
5:15 AM 44.1 °F 42.5 °F 33.4 °F 66% 30.33 in 10.0 mi North 3.5 mph - N/A   Clear
5:35 AM 44.1 °F 42.5 °F 33.1 °F 65% 30.33 in 10.0 mi North 3.5 mph - N/A   Clear
5:55 AM 43.7 °F 41.1 °F 33.8 °F 68% 30.33 in 10.0 mi North 4.6 mph - N/A   Clear
6:35 AM 43.7 °F 42.1 °F 33.6 °F 68% 30.34 in 10.0 mi NNE 3.5 mph - N/A   Scattered Clouds
6:55 AM 43.7 °F - 33.8 °F 68% 30.34 in 10.0 mi Calm Calm - N/A   Scattered Clouds
7:15 AM 43.7 °F 41.1 °F 33.6 °F 68% 30.35 in 10.0 mi NNE 4.6 mph - N/A   Scattered Clouds
7:35 AM 44.1 °F 41.5 °F 33.6 °F 67% 30.35 in 10.0 mi NNE 4.6 mph - N/A   Scattered Clouds
7:55 AM 44.6 °F 41.4 °F 33.6 °F 65% 30.35 in 10.0 mi NNE 5.8 mph - N/A   Mostly Cloudy
8:15 AM 44.6 °F - 33.4 °F 65% 30.36 in 10.0 mi North - - N/A   Mostly Cloudy
8:35 AM 45.0 °F 42.6 °F 33.8 °F 65% 30.36 in 10.0 mi NNE 4.6 mph - N/A   Overcast
8:55 AM 45.5 °F 43.2 °F 33.8 °F 64% 30.36 in 10.0 mi NNE 4.6 mph - N/A   Overcast
9:15 AM 46.0 °F 43.9 °F 33.6 °F 62% 30.35 in 10.0 mi NNE 4.6 mph - N/A   Overcast
9:35 AM 46.4 °F 44.3 °F 33.4 °F 61% 30.35 in 10.0 mi NNE 4.6 mph - N/A   Mostly Cloudy
9:55 AM 47.3 °F - 33.6 °F 59% 30.36 in 10.0 mi NNE 4.6 mph - N/A   Scattered Clouds
10:15 AM 48.2 °F - 33.3 °F 56% 30.35 in 10.0 mi North - - N/A   Scattered Clouds
10:55 AM 50.0 °F - 33.4 °F 53% 30.33 in 10.0 mi NNE 5.8 mph - N/A   Overcast
11:15 AM 50.5 °F - 33.1 °F 51% 30.32 in 10.0 mi North - - N/A   Overcast
11:35 AM 51.8 °F - 32.7 °F 48% 30.32 in 10.0 mi NE 3.5 mph - N/A   Overcast
11:55 AM 52.0 °F - 32.2 °F 47% 30.30 in 10.0 mi NE 4.6 mph - N/A   Overcast
12:15 PM 52.2 °F - 32.7 °F 48% 30.30 in 10.0 mi NNE 4.6 mph - N/A   Overcast
12:35 PM 52.2 °F - 32.4 °F 47% 30.29 in 10.0 mi NNE 4.6 mph - N/A   Overcast
12:55 PM 52.2 °F - 32.2 °F 47% 30.28 in 10.0 mi NNE 4.6 mph - N/A   Overcast
1:15 PM 52.0 °F - 33.8 °F 50% 30.27 in 10.0 mi NNE 4.6 mph - N/A Rain Light Rain
1:35 PM 52.3 °F - 33.4 °F 49% 30.27 in 10.0 mi NE 4.6 mph - N/A   Overcast
1:55 PM 52.3 °F - 34.0 °F 50% 30.26 in 10.0 mi NE 3.5 mph - N/A   Overcast
2:15 PM 52.2 °F - 33.6 °F 49% 30.26 in 10.0 mi NE 4.6 mph - N/A   Overcast
2:35 PM 52.7 °F - 34.3 °F 50% 30.25 in 10.0 mi NE 4.6 mph - N/A   Overcast
2:55 PM 52.7 °F - 34.9 °F 51% 30.26 in 10.0 mi NNE 4.6 mph - N/A   Overcast
3:15 PM 52.7 °F - 35.1 °F 51% 30.26 in 10.0 mi NNE 4.6 mph - N/A   Overcast
3:35 PM 52.7 °F - 35.2 °F 52% 30.25 in 10.0 mi North - - N/A   Overcast
3:55 PM 52.5 °F - 36.0 °F 53% 30.25 in 10.0 mi Calm Calm - N/A   Overcast
4:15 PM 52.2 °F - 36.5 °F 55% 30.25 in 10.0 mi North - - N/A Rain Rain
4:35 PM 51.6 °F - 37.0 °F 58% 30.25 in 10.0 mi NNE 5.8 mph - N/A   Overcast
5:15 PM 51.6 °F - 37.4 °F 58% 30.25 in 10.0 mi NNE 4.6 mph - N/A   Overcast
5:35 PM 51.3 °F - 38.5 °F 62% 30.25 in 10.0 mi Calm Calm - N/A Rain Rain
5:55 PM 50.9 °F - 39.6 °F 65% 30.25 in 10.0 mi NE 4.6 mph - N/A   Overcast
6:15 PM 51.1 °F - 39.0 °F 63% 30.25 in 10.0 mi ENE 4.6 mph - N/A   Overcast
6:35 PM 51.3 °F - 38.8 °F 63% 30.25 in 10.0 mi ENE 4.6 mph - N/A   Overcast
6:55 PM 51.3 °F - 38.5 °F 62% 30.24 in 10.0 mi ENE 4.6 mph - N/A   Overcast
7:15 PM 51.3 °F - 38.3 °F 61% 30.24 in 10.0 mi NE 5.8 mph - N/A   Overcast
7:55 PM 50.2 °F - 39.7 °F 67% 30.25 in 10.0 mi NNE 3.5 mph - N/A   Overcast
8:15 PM 50.4 °F - 39.6 °F 66% 30.25 in 10.0 mi NE 3.5 mph - N/A   Overcast
8:35 PM 49.6 °F - 40.8 °F 72% 30.24 in 10.0 mi North 3.5 mph - N/A   Drizzle
8:55 PM 49.1 °F - 41.9 °F 76% 30.24 in 10.0 mi NE 4.6 mph - N/A   Light Drizzle
9:15 PM 48.7 °F - 42.4 °F 79% 30.25 in 10.0 mi NNE 3.5 mph - N/A Rain Rain
9:35 PM 48.2 °F - 43.0 °F 82% 30.25 in 10.0 mi NE 3.5 mph - N/A   Light Drizzle
9:55 PM 48.2 °F - 43.3 °F 83% 30.24 in 10.0 mi NE 3.5 mph - N/A   Overcast
10:15 PM 48.2 °F - 43.9 °F 85% 30.24 in 10.0 mi ENE 3.5 mph - N/A   Overcast
10:35 PM 48.2 °F - 44.1 °F 86% 30.24 in 10.0 mi NE 3.5 mph - N/A   Overcast
10:55 PM 48.2 °F - 44.6 °F 87% 30.23 in 10.0 mi Calm Calm - N/A   Overcast
11:15 PM 48.6 °F - 44.6 °F 86% 30.22 in 10.0 mi Calm Calm - N/A   Overcast
11:35 PM 48.7 °F - 44.6 °F 86% 30.22 in 10.0 mi Calm Calm - N/A   Overcast
11:55 PM 48.6 °F - 45.0 °F 87% 30.21 in 10.0 mi Calm Calm - N/A   Overcast